Year,Month,Day,Hour,Minute,Value (Times are PST for windgust in km/hr)
2016,03,13,00,00,8.10
2016,03,13,00,01,9.60
2016,03,13,00,02,9.60
2016,03,13,00,03,9.60
2016,03,13,00,04,8.10
2016,03,13,00,05,8.10
2016,03,13,00,06,8.10
2016,03,13,00,07,8.10
2016,03,13,00,08,6.40
2016,03,13,00,09,6.40
2016,03,13,00,10,8.10
2016,03,13,00,11,9.60
2016,03,13,00,12,8.10
2016,03,13,00,13,8.10
2016,03,13,00,14,8.10
2016,03,13,00,15,8.10
2016,03,13,00,16,8.10
2016,03,13,00,17,8.10
2016,03,13,00,18,6.40
2016,03,13,00,19,6.40
2016,03,13,00,20,8.10
2016,03,13,00,21,6.40
2016,03,13,00,22,6.40
2016,03,13,00,23,6.40
2016,03,13,00,24,4.80
2016,03,13,00,25,4.80
2016,03,13,00,26,6.40
2016,03,13,00,27,4.80
2016,03,13,00,28,4.80
2016,03,13,00,29,4.80
2016,03,13,00,30,4.80
2016,03,13,00,31,4.80
2016,03,13,00,32,6.40
2016,03,13,00,33,6.40
2016,03,13,00,34,6.40
2016,03,13,00,35,6.40
2016,03,13,00,36,6.40
2016,03,13,00,37,8.10
2016,03,13,00,38,8.10
2016,03,13,00,39,8.10
2016,03,13,00,40,9.60
2016,03,13,00,41,9.60
2016,03,13,00,42,9.60
2016,03,13,00,43,9.60
2016,03,13,00,44,9.60
2016,03,13,00,45,8.10
2016,03,13,00,46,8.10
2016,03,13,00,47,6.40
2016,03,13,00,48,4.80
2016,03,13,00,49,11.30
2016,03,13,00,50,9.60
2016,03,13,00,51,6.40
2016,03,13,00,52,8.10
2016,03,13,00,53,6.40
2016,03,13,00,54,6.40
2016,03,13,00,55,6.40
2016,03,13,00,56,6.40
2016,03,13,00,57,8.10
2016,03,13,00,58,6.40
2016,03,13,00,59,8.10
2016,03,13,01,00,6.40
2016,03,13,01,01,8.10
2016,03,13,01,02,6.40
2016,03,13,01,03,8.10
2016,03,13,01,04,8.10
2016,03,13,01,05,8.10
2016,03,13,01,06,6.40
2016,03,13,01,07,6.40
2016,03,13,01,08,8.10
2016,03,13,01,09,8.10
2016,03,13,01,10,9.60
2016,03,13,01,11,6.40
2016,03,13,01,12,8.10
2016,03,13,01,13,8.10
2016,03,13,01,14,4.80
2016,03,13,01,15,3.20
2016,03,13,01,16,8.10
2016,03,13,01,17,8.10
2016,03,13,01,18,6.40
2016,03,13,01,19,4.80
2016,03,13,01,22,4.80
2016,03,13,01,23,3.20
2016,03,13,01,24,4.80
2016,03,13,01,25,6.40
2016,03,13,01,26,4.80
2016,03,13,01,28,1.60
2016,03,13,01,31,3.20
2016,03,13,01,32,4.80
2016,03,13,01,36,3.20
2016,03,13,01,37,4.80
2016,03,13,01,38,4.80
2016,03,13,01,39,4.80
2016,03,13,01,40,3.20
2016,03,13,01,41,4.80
2016,03,13,01,46,1.60
2016,03,13,01,48,1.60
2016,03,13,01,50,1.60
2016,03,13,01,58,4.80
2016,03,13,01,59,4.80
2016,03,13,03,00,4.80
2016,03,13,03,01,3.20
2016,03,13,03,02,1.60
2016,03,13,03,05,3.20
2016,03,13,03,06,4.80
2016,03,13,03,07,4.80
2016,03,13,03,08,3.20
2016,03,13,03,10,1.60
2016,03,13,03,11,6.40
2016,03,13,03,12,6.40
2016,03,13,03,13,3.20
2016,03,13,03,14,1.60
2016,03,13,03,16,4.80
2016,03,13,03,17,3.20
2016,03,13,03,18,4.80
2016,03,13,03,20,3.20
2016,03,13,03,21,3.20
2016,03,13,03,22,1.60
2016,03,13,03,30,1.60
2016,03,13,03,38,1.60
2016,03,13,03,40,4.80
2016,03,13,03,41,6.40
2016,03,13,03,42,4.80
2016,03,13,03,43,1.60
2016,03,13,03,44,4.80
2016,03,13,03,45,3.20
2016,03,13,03,47,4.80
2016,03,13,03,48,3.20
2016,03,13,03,50,3.20
2016,03,13,03,51,4.80
2016,03,13,03,52,3.20
2016,03,13,03,54,1.60
2016,03,13,03,55,1.60
2016,03,13,03,57,3.20
2016,03,13,03,58,6.40
2016,03,13,03,59,6.40
2016,03,13,04,00,6.40
2016,03,13,04,01,6.40
2016,03,13,04,02,6.40
2016,03,13,04,03,8.10
2016,03,13,04,04,6.40
2016,03,13,04,05,12.90
2016,03,13,04,06,17.70
2016,03,13,04,07,9.60
2016,03,13,04,08,8.10
2016,03,13,04,09,8.10
2016,03,13,04,10,9.60
2016,03,13,04,11,9.60
2016,03,13,04,12,6.40
2016,03,13,04,13,11.30
2016,03,13,04,14,14.50
2016,03,13,04,15,6.40
2016,03,13,04,16,11.30
2016,03,13,04,17,9.60
2016,03,13,04,18,20.90
2016,03,13,04,19,17.70
2016,03,13,04,20,14.50
2016,03,13,04,21,17.70
2016,03,13,04,22,17.70
2016,03,13,04,23,11.30
2016,03,13,04,24,19.30
2016,03,13,04,25,16.10
2016,03,13,04,26,11.30
2016,03,13,04,27,12.90
2016,03,13,04,28,17.70
2016,03,13,04,29,29.00
2016,03,13,04,30,27.40
2016,03,13,04,31,25.70
2016,03,13,04,32,22.50
2016,03,13,04,33,24.20
2016,03,13,04,34,29.00
2016,03,13,04,35,32.20
2016,03,13,04,36,22.50
2016,03,13,04,37,16.10
2016,03,13,04,38,22.50
2016,03,13,04,39,25.70
2016,03,13,04,40,25.70
2016,03,13,04,41,19.30
2016,03,13,04,42,16.10
2016,03,13,04,43,16.10
2016,03,13,04,44,24.20
2016,03,13,04,45,17.70
2016,03,13,04,46,20.90
2016,03,13,04,47,35.40
2016,03,13,04,48,19.30
2016,03,13,04,49,27.40
2016,03,13,04,50,19.30
2016,03,13,04,51,24.20
2016,03,13,04,52,11.30
2016,03,13,04,53,17.70
2016,03,13,04,54,25.70
2016,03,13,04,55,25.70
2016,03,13,04,56,22.50
2016,03,13,04,57,17.70
2016,03,13,04,58,22.50
2016,03,13,04,59,25.70
2016,03,13,05,00,32.20
2016,03,13,05,01,24.20
2016,03,13,05,02,29.00
2016,03,13,05,03,29.00
2016,03,13,05,04,32.20
2016,03,13,05,05,22.50
2016,03,13,05,06,17.70
2016,03,13,05,07,27.40
2016,03,13,05,08,29.00
2016,03,13,05,09,24.20
2016,03,13,05,10,22.50
2016,03,13,05,11,24.20
2016,03,13,05,12,22.50
2016,03,13,05,13,27.40
2016,03,13,05,14,32.20
2016,03,13,05,15,40.20
2016,03,13,05,16,27.40
2016,03,13,05,17,27.40
2016,03,13,05,18,20.90
2016,03,13,05,19,37.00
2016,03,13,05,20,25.70
2016,03,13,05,21,25.70
2016,03,13,05,22,24.20
2016,03,13,05,23,17.70
2016,03,13,05,24,24.20
2016,03,13,05,25,16.10
2016,03,13,05,26,22.50
2016,03,13,05,27,19.30
2016,03,13,05,28,19.30
2016,03,13,05,29,29.00
2016,03,13,05,30,29.00
2016,03,13,05,31,27.40
2016,03,13,05,32,20.90
2016,03,13,05,33,24.20
2016,03,13,05,34,27.40
2016,03,13,05,35,24.20
2016,03,13,05,36,20.90
2016,03,13,05,37,32.20
2016,03,13,05,38,33.80
2016,03,13,05,39,24.20
2016,03,13,05,40,33.80
2016,03,13,05,41,25.70
2016,03,13,05,42,29.00
2016,03,13,05,43,29.00
2016,03,13,05,44,41.80
2016,03,13,05,45,33.80
2016,03,13,05,46,38.60
2016,03,13,05,47,32.20
2016,03,13,05,48,29.00
2016,03,13,05,49,27.40
2016,03,13,05,50,33.80
2016,03,13,05,51,32.20
2016,03,13,05,52,30.60
2016,03,13,05,53,48.30
2016,03,13,05,54,24.20
2016,03,13,05,55,30.60
2016,03,13,05,56,29.00
2016,03,13,05,57,35.40
2016,03,13,05,58,25.70
2016,03,13,05,59,33.80
2016,03,13,06,00,25.70
2016,03,13,06,01,19.30
2016,03,13,06,02,38.60
2016,03,13,06,03,25.70
2016,03,13,06,04,25.70
2016,03,13,06,05,35.40
2016,03,13,06,06,41.80
2016,03,13,06,07,38.60
2016,03,13,06,08,33.80
2016,03,13,06,09,35.40
2016,03,13,06,10,27.40
2016,03,13,06,11,25.70
2016,03,13,06,12,24.20
2016,03,13,06,13,30.60
2016,03,13,06,14,30.60
2016,03,13,06,15,38.60
2016,03,13,06,16,24.20
2016,03,13,06,17,22.50
2016,03,13,06,18,29.00
2016,03,13,06,19,22.50
2016,03,13,06,20,27.40
2016,03,13,06,21,22.50
2016,03,13,06,22,20.90
2016,03,13,06,23,27.40
2016,03,13,06,24,22.50
2016,03,13,06,25,22.50
2016,03,13,06,26,20.90
2016,03,13,06,27,24.20
2016,03,13,06,28,14.50
2016,03,13,06,29,19.30
2016,03,13,06,30,22.50
2016,03,13,06,31,27.40
2016,03,13,06,32,17.70
2016,03,13,06,33,22.50
2016,03,13,06,34,24.20
2016,03,13,06,35,24.20
2016,03,13,06,36,24.20
2016,03,13,06,37,38.60
2016,03,13,06,38,20.90
2016,03,13,06,39,25.70
2016,03,13,06,40,25.70
2016,03,13,06,41,17.70
2016,03,13,06,42,24.20
2016,03,13,06,43,22.50
2016,03,13,06,44,24.20
2016,03,13,06,45,19.30
2016,03,13,06,46,19.30
2016,03,13,06,47,29.00
2016,03,13,06,48,27.40
2016,03,13,06,49,22.50
2016,03,13,06,50,30.60
2016,03,13,06,51,32.20
2016,03,13,06,52,17.70
2016,03,13,06,53,16.10
2016,03,13,06,54,30.60
2016,03,13,06,55,20.90
2016,03,13,06,56,14.50
2016,03,13,06,57,16.10
2016,03,13,06,58,22.50
2016,03,13,06,59,22.50
2016,03,13,07,00,29.00
2016,03,13,07,01,29.00
2016,03,13,07,02,27.40
2016,03,13,07,03,24.20
2016,03,13,07,04,16.10
2016,03,13,07,05,16.10
2016,03,13,07,06,17.70
2016,03,13,07,07,32.20
2016,03,13,07,08,22.50
2016,03,13,07,09,43.50
2016,03,13,07,10,17.70
2016,03,13,07,11,38.60
2016,03,13,07,12,24.20
2016,03,13,07,13,16.10
2016,03,13,07,14,32.20
2016,03,13,07,15,27.40
2016,03,13,07,16,32.20
2016,03,13,07,17,19.30
2016,03,13,07,18,11.30
2016,03,13,07,19,24.20
2016,03,13,07,20,32.20
2016,03,13,07,21,29.00
2016,03,13,07,22,16.10
2016,03,13,07,23,16.10
2016,03,13,07,24,25.70
2016,03,13,07,25,40.20
2016,03,13,07,26,17.70
2016,03,13,07,27,16.10
2016,03,13,07,28,35.40
2016,03,13,07,29,24.20
2016,03,13,07,30,27.40
2016,03,13,07,31,19.30
2016,03,13,07,32,24.20
2016,03,13,07,33,30.60
2016,03,13,07,34,25.70
2016,03,13,07,35,25.70
2016,03,13,07,36,25.70
2016,03,13,07,37,30.60
2016,03,13,07,38,17.70
2016,03,13,07,39,32.20
2016,03,13,07,40,32.20
2016,03,13,07,41,24.20
2016,03,13,07,42,25.70
2016,03,13,07,43,19.30
2016,03,13,07,44,9.60
2016,03,13,07,45,27.40
2016,03,13,07,46,30.60
2016,03,13,07,47,27.40
2016,03,13,07,48,22.50
2016,03,13,07,49,22.50
2016,03,13,07,50,27.40
2016,03,13,07,51,20.90
2016,03,13,07,52,14.50
2016,03,13,07,53,17.70
2016,03,13,07,54,24.20
2016,03,13,07,55,24.20
2016,03,13,07,56,22.50
2016,03,13,07,57,22.50
2016,03,13,07,58,29.00
2016,03,13,07,59,38.60
2016,03,13,08,00,19.30
2016,03,13,08,01,29.00
2016,03,13,08,02,14.50
2016,03,13,08,03,19.30
2016,03,13,08,04,22.50
2016,03,13,08,05,19.30
2016,03,13,08,06,22.50
2016,03,13,08,07,9.60
2016,03,13,08,08,16.10
2016,03,13,08,09,29.00
2016,03,13,08,10,37.00
2016,03,13,08,11,41.80
2016,03,13,08,12,12.90
2016,03,13,08,13,27.40
2016,03,13,08,14,27.40
2016,03,13,08,15,29.00
2016,03,13,08,16,30.60
2016,03,13,08,17,25.70
2016,03,13,08,18,14.50
2016,03,13,08,19,8.10
2016,03,13,08,20,22.50
2016,03,13,08,21,27.40
2016,03,13,08,22,29.00
2016,03,13,08,23,29.00
2016,03,13,08,24,22.50
2016,03,13,08,25,22.50
2016,03,13,08,26,25.70
2016,03,13,08,27,25.70
2016,03,13,08,28,24.20
2016,03,13,08,29,20.90
2016,03,13,08,30,17.70
2016,03,13,08,31,32.20
2016,03,13,08,32,17.70
2016,03,13,08,33,20.90
2016,03,13,08,34,25.70
2016,03,13,08,35,20.90
2016,03,13,08,36,20.90
2016,03,13,08,37,14.50
2016,03,13,08,38,19.30
2016,03,13,08,39,16.10
2016,03,13,08,40,17.70
2016,03,13,08,41,17.70
2016,03,13,08,42,24.20
2016,03,13,08,43,19.30
2016,03,13,08,44,25.70
2016,03,13,08,45,9.60
2016,03,13,08,46,12.90
2016,03,13,08,47,32.20
2016,03,13,08,48,17.70
2016,03,13,08,49,9.60
2016,03,13,08,50,29.00
2016,03,13,08,51,19.30
2016,03,13,08,52,24.20
2016,03,13,08,53,8.10
2016,03,13,08,54,17.70
2016,03,13,08,55,6.40
2016,03,13,08,56,20.90
2016,03,13,08,57,17.70
2016,03,13,08,58,14.50
2016,03,13,08,59,16.10
2016,03,13,09,00,19.30
2016,03,13,09,01,14.50
2016,03,13,09,02,14.50
2016,03,13,09,03,11.30
2016,03,13,09,04,16.10
2016,03,13,09,05,9.60
2016,03,13,09,06,17.70
2016,03,13,09,07,17.70
2016,03,13,09,08,9.60
2016,03,13,09,09,9.60
2016,03,13,09,10,11.30
2016,03,13,09,11,6.40
2016,03,13,09,12,11.30
2016,03,13,09,13,8.10
2016,03,13,09,14,14.50
2016,03,13,09,15,8.10
2016,03,13,09,16,11.30
2016,03,13,09,17,19.30
2016,03,13,09,18,19.30
2016,03,13,09,19,17.70
2016,03,13,09,20,25.70
2016,03,13,09,21,17.70
2016,03,13,09,22,25.70
2016,03,13,09,23,17.70
2016,03,13,09,24,14.50
2016,03,13,09,25,20.90
2016,03,13,09,26,16.10
2016,03,13,09,27,19.30
2016,03,13,09,28,29.00
2016,03,13,09,29,16.10
2016,03,13,09,30,11.30
2016,03,13,09,31,20.90
2016,03,13,09,32,24.20
2016,03,13,09,33,6.40
2016,03,13,09,34,6.40
2016,03,13,09,35,9.60
2016,03,13,09,36,8.10
2016,03,13,09,37,20.90
2016,03,13,09,38,19.30
2016,03,13,09,39,27.40
2016,03,13,09,40,17.70
2016,03,13,09,41,27.40
2016,03,13,09,42,33.80
2016,03,13,09,43,24.20
2016,03,13,09,44,14.50
2016,03,13,09,45,24.20
2016,03,13,09,46,16.10
2016,03,13,09,47,16.10
2016,03,13,09,48,19.30
2016,03,13,09,49,17.70
2016,03,13,09,50,12.90
2016,03,13,09,51,24.20
2016,03,13,09,52,20.90
2016,03,13,09,53,20.90
2016,03,13,09,54,17.70
2016,03,13,09,55,11.30
2016,03,13,09,56,12.90
2016,03,13,09,57,8.10
2016,03,13,09,58,20.90
2016,03,13,09,59,19.30
2016,03,13,10,00,32.20
2016,03,13,10,01,30.60
2016,03,13,10,02,41.80
2016,03,13,10,03,40.20
2016,03,13,10,04,22.50
2016,03,13,10,05,30.60
2016,03,13,10,06,38.60
2016,03,13,10,07,25.70
2016,03,13,10,08,24.20
2016,03,13,10,09,16.10
2016,03,13,10,10,35.40
2016,03,13,10,11,17.70
2016,03,13,10,12,22.50
2016,03,13,10,13,22.50
2016,03,13,10,14,27.40
2016,03,13,10,15,25.70
2016,03,13,10,16,22.50
2016,03,13,10,17,20.90
2016,03,13,10,18,20.90
2016,03,13,10,19,9.60
2016,03,13,10,20,17.70
2016,03,13,10,21,17.70
2016,03,13,10,22,16.10
2016,03,13,10,23,17.70
2016,03,13,10,24,22.50
2016,03,13,10,25,14.50
2016,03,13,10,26,8.10
2016,03,13,10,27,19.30
2016,03,13,10,28,17.70
2016,03,13,10,29,19.30
2016,03,13,10,30,9.60
2016,03,13,10,31,27.40
2016,03,13,10,32,6.40
2016,03,13,10,33,19.30
2016,03,13,10,34,14.50
2016,03,13,10,35,24.20
2016,03,13,10,36,16.10
2016,03,13,10,37,17.70
2016,03,13,10,38,9.60
2016,03,13,10,39,20.90
2016,03,13,10,40,22.50
2016,03,13,10,41,30.60
2016,03,13,10,42,24.20
2016,03,13,10,43,9.60
2016,03,13,10,44,19.30
2016,03,13,10,45,16.10
2016,03,13,10,46,24.20
2016,03,13,10,47,25.70
2016,03,13,10,48,16.10
2016,03,13,10,49,19.30
2016,03,13,10,50,19.30
2016,03,13,10,51,27.40
2016,03,13,10,52,24.20
2016,03,13,10,53,25.70
2016,03,13,10,54,20.90
2016,03,13,10,55,25.70
2016,03,13,10,56,24.20
2016,03,13,10,57,20.90
2016,03,13,10,58,19.30
2016,03,13,10,59,16.10
2016,03,13,11,00,17.70
2016,03,13,11,01,19.30
2016,03,13,11,02,22.50
2016,03,13,11,03,20.90
2016,03,13,11,04,30.60
2016,03,13,11,05,29.00
2016,03,13,11,06,24.20
2016,03,13,11,07,20.90
2016,03,13,11,08,17.70
2016,03,13,11,09,20.90
2016,03,13,11,10,19.30
2016,03,13,11,11,38.60
2016,03,13,11,12,24.20
2016,03,13,11,13,22.50
2016,03,13,11,14,25.70
2016,03,13,11,15,32.20
2016,03,13,11,16,19.30
2016,03,13,11,17,17.70
2016,03,13,11,18,30.60
2016,03,13,11,19,30.60
2016,03,13,11,20,27.40
2016,03,13,11,21,29.00
2016,03,13,11,22,32.20
2016,03,13,11,23,22.50
2016,03,13,11,24,27.40
2016,03,13,11,25,25.70
2016,03,13,11,26,14.50
2016,03,13,11,27,16.10
2016,03,13,11,28,19.30
2016,03,13,11,29,33.80
2016,03,13,11,30,25.70
2016,03,13,11,31,29.00
2016,03,13,11,32,38.60
2016,03,13,11,33,22.50
2016,03,13,11,34,27.40
2016,03,13,11,35,22.50
2016,03,13,11,36,19.30
2016,03,13,11,37,24.20
2016,03,13,11,38,24.20
2016,03,13,11,39,35.40
2016,03,13,11,40,29.00
2016,03,13,11,41,33.80
2016,03,13,11,42,32.20
2016,03,13,11,43,22.50
2016,03,13,11,44,25.70
2016,03,13,11,45,20.90
2016,03,13,11,46,27.40
2016,03,13,11,47,29.00
2016,03,13,11,48,27.40
2016,03,13,11,49,17.70
2016,03,13,11,50,22.50
2016,03,13,11,51,41.80
2016,03,13,11,52,35.40
2016,03,13,11,53,24.20
2016,03,13,11,54,25.70
2016,03,13,11,55,29.00
2016,03,13,11,56,30.60
2016,03,13,11,57,32.20
2016,03,13,11,58,30.60
2016,03,13,11,59,14.50
2016,03,13,12,00,19.30
2016,03,13,12,01,20.90
2016,03,13,12,02,20.90
2016,03,13,12,03,14.50
2016,03,13,12,04,20.90
2016,03,13,12,05,20.90
2016,03,13,12,06,24.20
2016,03,13,12,07,37.00
2016,03,13,12,08,25.70
2016,03,13,12,09,20.90
2016,03,13,12,10,19.30
2016,03,13,12,11,20.90
2016,03,13,12,12,20.90
2016,03,13,12,13,17.70
2016,03,13,12,14,22.50
2016,03,13,12,15,17.70
2016,03,13,12,16,22.50
2016,03,13,12,17,20.90
2016,03,13,12,18,17.70
2016,03,13,12,19,33.80
2016,03,13,12,20,32.20
2016,03,13,12,21,37.00
2016,03,13,12,22,33.80
2016,03,13,12,23,33.80
2016,03,13,12,24,33.80
2016,03,13,12,25,30.60
2016,03,13,12,26,30.60
2016,03,13,12,27,27.40
2016,03,13,12,28,22.50
2016,03,13,12,29,24.20
2016,03,13,12,30,33.80
2016,03,13,12,31,25.70
2016,03,13,12,32,38.60
2016,03,13,12,33,32.20
2016,03,13,12,34,30.60
2016,03,13,12,35,24.20
2016,03,13,12,36,27.40
2016,03,13,12,37,29.00
2016,03,13,12,38,46.70
2016,03,13,12,39,24.20
2016,03,13,12,40,16.10
2016,03,13,12,41,25.70
2016,03,13,12,42,29.00
2016,03,13,12,43,32.20
2016,03,13,12,44,38.60
2016,03,13,12,45,19.30
2016,03,13,12,46,27.40
2016,03,13,12,47,27.40
2016,03,13,12,48,25.70
2016,03,13,12,49,25.70
2016,03,13,12,50,22.50
2016,03,13,12,51,19.30
2016,03,13,12,52,20.90
2016,03,13,12,53,29.00
2016,03,13,12,54,35.40
2016,03,13,12,55,22.50
2016,03,13,12,56,24.20
2016,03,13,12,57,24.20
2016,03,13,12,58,24.20
2016,03,13,12,59,25.70
2016,03,13,13,00,32.20
2016,03,13,13,01,17.70
2016,03,13,13,02,41.80
2016,03,13,13,03,35.40
2016,03,13,13,04,37.00
2016,03,13,13,05,33.80
2016,03,13,13,06,35.40
2016,03,13,13,07,27.40
2016,03,13,13,08,38.60
2016,03,13,13,09,33.80
2016,03,13,13,10,14.50
2016,03,13,13,11,43.50
2016,03,13,13,12,27.40
2016,03,13,13,13,35.40
2016,03,13,13,14,43.50
2016,03,13,13,15,37.00
2016,03,13,13,16,33.80
2016,03,13,13,17,25.70
2016,03,13,13,18,17.70
2016,03,13,13,19,25.70
2016,03,13,13,20,20.90
2016,03,13,13,21,24.20
2016,03,13,13,22,29.00
2016,03,13,13,23,37.00
2016,03,13,13,24,35.40
2016,03,13,13,25,14.50
2016,03,13,13,26,32.20
2016,03,13,13,27,37.00
2016,03,13,13,28,45.10
2016,03,13,13,29,24.20
2016,03,13,13,30,30.60
2016,03,13,13,31,32.20
2016,03,13,13,32,45.10
2016,03,13,13,33,53.10
2016,03,13,13,34,40.20
2016,03,13,13,35,24.20
2016,03,13,13,36,37.00
2016,03,13,13,37,35.40
2016,03,13,13,38,25.70
2016,03,13,13,39,27.40
2016,03,13,13,40,17.70
2016,03,13,13,41,35.40
2016,03,13,13,42,33.80
2016,03,13,13,43,29.00
2016,03,13,13,44,24.20
2016,03,13,13,45,32.20
2016,03,13,13,46,40.20
2016,03,13,13,47,27.40
2016,03,13,13,48,29.00
2016,03,13,13,49,38.60
2016,03,13,13,50,29.00
2016,03,13,13,51,20.90
2016,03,13,13,52,19.30
2016,03,13,13,53,40.20
2016,03,13,13,54,22.50
2016,03,13,13,55,45.10
2016,03,13,13,56,35.40
2016,03,13,13,57,27.40
2016,03,13,13,58,25.70
2016,03,13,13,59,27.40
2016,03,13,14,00,30.60
2016,03,13,14,01,30.60
2016,03,13,14,02,27.40
2016,03,13,14,03,19.30
2016,03,13,14,04,27.40
2016,03,13,14,05,19.30
2016,03,13,14,06,35.40
2016,03,13,14,07,38.60
2016,03,13,14,08,29.00
2016,03,13,14,09,27.40
2016,03,13,14,10,29.00
2016,03,13,14,11,30.60
2016,03,13,14,12,30.60
2016,03,13,14,13,20.90
2016,03,13,14,14,27.40
2016,03,13,14,15,35.40
2016,03,13,14,16,29.00
2016,03,13,14,17,32.20
2016,03,13,14,18,29.00
2016,03,13,14,19,32.20
2016,03,13,14,20,22.50
2016,03,13,14,21,27.40
2016,03,13,14,22,27.40
2016,03,13,14,23,37.00
2016,03,13,14,24,33.80
2016,03,13,14,25,30.60
2016,03,13,14,26,41.80
2016,03,13,14,27,16.10
2016,03,13,14,28,30.60
2016,03,13,14,29,41.80
2016,03,13,14,30,46.70
2016,03,13,14,31,40.20
2016,03,13,14,32,29.00
2016,03,13,14,33,24.20
2016,03,13,14,34,32.20
2016,03,13,14,35,30.60
2016,03,13,14,36,33.80
2016,03,13,14,37,20.90
2016,03,13,14,38,32.20
2016,03,13,14,39,32.20
2016,03,13,14,40,40.20
2016,03,13,14,41,38.60
2016,03,13,14,42,30.60
2016,03,13,14,43,41.80
2016,03,13,14,44,37.00
2016,03,13,14,45,30.60
2016,03,13,14,46,24.20
2016,03,13,14,47,46.70
2016,03,13,14,48,38.60
2016,03,13,14,49,29.00
2016,03,13,14,50,46.70
2016,03,13,14,51,46.70
2016,03,13,14,52,51.50
2016,03,13,14,53,38.60
2016,03,13,14,54,43.50
2016,03,13,14,55,41.80
2016,03,13,14,56,27.40
2016,03,13,14,57,59.50
2016,03,13,14,58,53.10
2016,03,13,14,59,49.90
2016,03,13,15,00,40.20
2016,03,13,15,01,37.00
2016,03,13,15,02,35.40
2016,03,13,15,03,30.60
2016,03,13,15,04,53.10
2016,03,13,15,05,33.80
2016,03,13,15,06,32.20
2016,03,13,15,07,38.60
2016,03,13,15,08,30.60
2016,03,13,15,09,32.20
2016,03,13,15,10,45.10
2016,03,13,15,11,27.40
2016,03,13,15,12,37.00
2016,03,13,15,13,43.50
2016,03,13,15,14,22.50
2016,03,13,15,15,33.80
2016,03,13,15,16,29.00
2016,03,13,15,17,32.20
2016,03,13,15,18,30.60
2016,03,13,15,19,27.40
2016,03,13,15,20,29.00
2016,03,13,15,21,37.00
2016,03,13,15,22,35.40
2016,03,13,15,23,51.50
2016,03,13,15,24,33.80
2016,03,13,15,25,41.80
2016,03,13,15,26,30.60
2016,03,13,15,27,27.40
2016,03,13,15,28,32.20
2016,03,13,15,29,38.60
2016,03,13,15,30,46.70
2016,03,13,15,31,41.80
2016,03,13,15,32,46.70
2016,03,13,15,33,32.20
2016,03,13,15,34,32.20
2016,03,13,15,35,22.50
2016,03,13,15,36,29.00
2016,03,13,15,37,41.80
2016,03,13,15,38,27.40
2016,03,13,15,39,45.10
2016,03,13,15,40,29.00
2016,03,13,15,41,29.00
2016,03,13,15,42,24.20
2016,03,13,15,43,32.20
2016,03,13,15,44,22.50
2016,03,13,15,45,29.00
2016,03,13,15,46,20.90
2016,03,13,15,47,29.00
2016,03,13,15,48,29.00
2016,03,13,15,49,20.90
2016,03,13,15,50,22.50
2016,03,13,15,51,33.80
2016,03,13,15,52,30.60
2016,03,13,15,53,33.80
2016,03,13,15,54,30.60
2016,03,13,15,55,37.00
2016,03,13,15,56,35.40
2016,03,13,15,57,25.70
2016,03,13,15,58,37.00
2016,03,13,15,59,25.70
2016,03,13,16,00,25.70
2016,03,13,16,01,22.50
2016,03,13,16,02,32.20
2016,03,13,16,03,29.00
2016,03,13,16,04,22.50
2016,03,13,16,05,22.50
2016,03,13,16,06,20.90
2016,03,13,16,07,25.70
2016,03,13,16,08,20.90
2016,03,13,16,09,25.70
2016,03,13,16,10,24.20
2016,03,13,16,11,19.30
2016,03,13,16,12,24.20
2016,03,13,16,13,20.90
2016,03,13,16,14,25.70
2016,03,13,16,15,32.20
2016,03,13,16,16,27.40
2016,03,13,16,17,32.20
2016,03,13,16,18,32.20
2016,03,13,16,19,38.60
2016,03,13,16,20,35.40
2016,03,13,16,21,32.20
2016,03,13,16,22,22.50
2016,03,13,16,23,43.50
2016,03,13,16,24,27.40
2016,03,13,16,25,24.20
2016,03,13,16,26,27.40
2016,03,13,16,27,35.40
2016,03,13,16,28,30.60
2016,03,13,16,29,30.60
2016,03,13,16,30,27.40
2016,03,13,16,31,30.60
2016,03,13,16,32,32.20
2016,03,13,16,33,40.20
2016,03,13,16,34,37.00
2016,03,13,16,35,49.90
2016,03,13,16,36,25.70
2016,03,13,16,37,33.80
2016,03,13,16,38,33.80
2016,03,13,16,39,53.10
2016,03,13,16,40,33.80
2016,03,13,16,41,48.30
2016,03,13,16,42,37.00
2016,03,13,16,43,37.00
2016,03,13,16,44,29.00
2016,03,13,16,45,29.00
2016,03,13,16,46,40.20
2016,03,13,16,47,37.00
2016,03,13,16,48,30.60
2016,03,13,16,49,38.60
2016,03,13,16,50,48.30
2016,03,13,16,51,29.00
2016,03,13,16,52,41.80
2016,03,13,16,53,41.80
2016,03,13,16,54,35.40
2016,03,13,16,55,51.50
2016,03,13,16,56,41.80
2016,03,13,16,57,45.10
2016,03,13,16,58,51.50
2016,03,13,16,59,41.80
2016,03,13,17,00,53.10
2016,03,13,17,01,59.50
2016,03,13,17,02,53.10
2016,03,13,17,03,57.90
2016,03,13,17,04,49.90
2016,03,13,17,05,70.80
2016,03,13,17,06,57.90
2016,03,13,17,07,57.90
2016,03,13,17,08,64.40
2016,03,13,17,09,53.10
2016,03,13,17,10,59.50
2016,03,13,17,11,74.00
2016,03,13,17,12,77.30
2016,03,13,17,13,82.10
2016,03,13,17,14,66.00
2016,03,13,17,15,70.80
2016,03,13,17,16,54.70
2016,03,13,17,17,56.30
2016,03,13,17,18,54.70
2016,03,13,17,19,67.60
2016,03,13,17,20,61.20
2016,03,13,17,21,56.30
2016,03,13,17,22,59.50
2016,03,13,17,23,61.20
2016,03,13,17,24,57.90
2016,03,13,17,25,54.70
2016,03,13,17,26,67.60
2016,03,13,17,27,54.70
2016,03,13,17,28,53.10
2016,03,13,17,29,49.90
2016,03,13,17,30,57.90
2016,03,13,17,31,59.50
2016,03,13,17,32,77.30
2016,03,13,17,33,80.50
2016,03,13,17,34,82.10
2016,03,13,17,35,59.50
2016,03,13,17,36,61.20
2016,03,13,17,37,64.40
2016,03,13,17,38,54.70
2016,03,13,17,39,59.50
2016,03,13,17,40,70.80
2016,03,13,17,41,48.30
2016,03,13,17,42,46.70
2016,03,13,17,43,53.10
2016,03,13,17,44,57.90
2016,03,13,17,45,64.40
2016,03,13,17,46,62.70
2016,03,13,17,47,59.50
2016,03,13,17,48,61.20
2016,03,13,17,49,53.10
2016,03,13,17,50,48.30
2016,03,13,17,51,54.70
2016,03,13,17,52,78.80
2016,03,13,17,53,51.50
2016,03,13,17,54,54.70
2016,03,13,17,55,66.00
2016,03,13,17,56,66.00
2016,03,13,17,57,56.30
2016,03,13,17,58,53.10
2016,03,13,17,59,53.10
2016,03,13,18,00,43.50
2016,03,13,18,01,53.10
2016,03,13,18,02,61.20
2016,03,13,18,03,51.50
2016,03,13,18,04,53.10
2016,03,13,18,05,62.70
2016,03,13,18,06,56.30
2016,03,13,18,07,48.30
2016,03,13,18,08,51.50
2016,03,13,18,09,43.50
2016,03,13,18,10,43.50
2016,03,13,18,11,49.90
2016,03,13,18,12,51.50
2016,03,13,18,13,61.20
2016,03,13,18,14,70.80
2016,03,13,18,15,48.30
2016,03,13,18,16,46.70
2016,03,13,18,17,54.70
2016,03,13,18,18,49.90
2016,03,13,18,19,46.70
2016,03,13,18,20,59.50
2016,03,13,18,21,53.10
2016,03,13,18,22,49.90
2016,03,13,18,23,61.20
2016,03,13,18,24,53.10
2016,03,13,18,25,48.30
2016,03,13,18,26,45.10
2016,03,13,18,27,53.10
2016,03,13,18,28,59.50
2016,03,13,18,29,56.30
2016,03,13,18,30,56.30
2016,03,13,18,31,45.10
2016,03,13,18,32,37.00
2016,03,13,18,33,43.50
2016,03,13,18,34,46.70
2016,03,13,18,35,51.50
2016,03,13,18,36,57.90
2016,03,13,18,37,48.30
2016,03,13,18,38,49.90
2016,03,13,18,39,38.60
2016,03,13,18,40,32.20
2016,03,13,18,41,51.50
2016,03,13,18,42,53.10
2016,03,13,18,43,49.90
2016,03,13,18,44,53.10
2016,03,13,18,45,56.30
2016,03,13,18,46,53.10
2016,03,13,18,47,40.20
2016,03,13,18,48,45.10
2016,03,13,18,49,62.70
2016,03,13,18,50,57.90
2016,03,13,18,51,30.60
2016,03,13,18,52,41.80
2016,03,13,18,53,46.70
2016,03,13,18,54,43.50
2016,03,13,18,55,48.30
2016,03,13,18,56,53.10
2016,03,13,18,57,43.50
2016,03,13,18,58,45.10
2016,03,13,18,59,43.50
2016,03,13,19,00,32.20
2016,03,13,19,01,29.00
2016,03,13,19,02,27.40
2016,03,13,19,03,17.70
2016,03,13,19,04,30.60
2016,03,13,19,05,27.40
2016,03,13,19,06,29.00
2016,03,13,19,07,32.20
2016,03,13,19,08,30.60
2016,03,13,19,09,22.50
2016,03,13,19,10,20.90
2016,03,13,19,11,37.00